Camarillo, CA

11:32 AM PDT on April 20, 2018 (GMT -0700)
Camarillo

Weather History for KCMA - March, 2014

Change the Weather History Date:

Monday, March 10, 2014

  Actual Average Record
Temperature  
Mean Temperature 61 °F 56 °F  
Max Temperature 73 °F 65 °F 93 °F (1997)
Min Temperature 49 °F 46 °F 34 °F (1931)
Degree Days  
Heating Degree Days 4 10  
Month to date heating degree days 39 101  
Since 1 July heating degree days 992 1437  
Cooling Degree Days 0 0  
Month to date cooling degree days 7 0  
Year to date cooling degree days 35 9  
Growing Degree Days 12 (Base 50)    
Moisture  
Dew Point 45 °F    
Average Humidity 60    
Maximum Humidity 86    
Minimum Humidity 33    
Precipitation  
Precipitation 0.00 in 0.12 in 2.11 in (1995)
Month to date precipitation 0.71 1.58  
Year to date precipitation 4.03 8.76  
Since 1 July precipitation 4.85  
Sea Level Pressure  
Sea Level Pressure 30.05 in    
Wind  
Wind Speed 3 mph (SW)    
Max Wind Speed 13 mph    
Max Gust Speed -    
Visibility 10 miles    
Events      
T = Trace of Precipitation, MM = Missing Value Source: NWS Daily Summary

Daily Weather History Graph

Daily Weather History Graph

Search for Another Location

Airport or City:

Astronomy

Mar. 10, 2014 Rise Set
Actual Time 7:13 AM PDT 7:00 PM PDT
Civil Twilight 6:48 AM PDT 7:25 PM PDT
Nautical Twilight 6:19 AM PDT 7:54 PM PDT
Astronomical Twilight 5:50 AM PDT 8:23 PM PDT
Moon 1:58 PM PDT (3/10) 3:18 AM PDT (3/10)
Length of Visible Light 12h 36m
Length of Day
11h 46m
Waxing Gibbous, 71% of the Moon is Illuminated
Mar 10
Waxing Gibbous
Mar 16
Full
Mar 23
Last Quarter
Mar 30
New
Apr 7
First Quarter

Hourly Weather History & Observations

Time (PDT) Temp. Dew Point Humidity Pressure Visibility Wind Dir Wind Speed Gust Speed Precip Events Conditions
12:55 AM 55.0 °F 39.9 °F 57% 30.10 in 10.0 mi Calm Calm - N/A   Clear
1:55 AM 51.1 °F 41.0 °F 68% 30.10 in 10.0 mi Calm Calm - N/A   Clear
2:55 AM 54.0 °F 37.9 °F 55% 30.07 in 10.0 mi ENE 5.8 mph - N/A   Clear
3:55 AM 52.0 °F 37.0 °F 57% 30.05 in 10.0 mi Calm Calm - N/A   Clear
4:55 AM 50.0 °F 37.9 °F 63% 30.05 in 10.0 mi Calm Calm - N/A   Clear
5:55 AM 50.0 °F 37.9 °F 63% 30.05 in 10.0 mi Calm Calm - N/A   Clear
6:55 AM 50.0 °F 39.9 °F 68% 30.07 in 10.0 mi Calm Calm - N/A   Clear
7:55 AM 51.1 °F 42.1 °F 71% 30.09 in 10.0 mi West 3.5 mph - N/A   Clear
8:55 AM 57.0 °F 43.0 °F 59% 30.10 in 10.0 mi Calm Calm - N/A   Clear
9:55 AM 62.1 °F 42.1 °F 48% 30.11 in 10.0 mi Calm Calm - N/A   Clear
10:55 AM 66.9 °F 41.0 °F 39% 30.11 in 10.0 mi Calm Calm - N/A   Clear
11:55 AM 71.1 °F 41.0 °F 34% 30.09 in 10.0 mi Variable 3.5 mph - N/A   Clear
12:55 PM 73.0 °F 43.0 °F 34% 30.08 in 10.0 mi SW 8.1 mph - N/A   Clear
1:55 PM 71.1 °F 46.0 °F 41% 30.06 in 10.0 mi SSW 9.2 mph - N/A   Clear
2:55 PM 70.0 °F 50.0 °F 49% 30.03 in 10.0 mi SW 8.1 mph - N/A   Clear
3:55 PM 70.0 °F 50.0 °F 49% 30.03 in 10.0 mi WSW 9.2 mph - N/A   Clear
4:55 PM 72.0 °F 44.1 °F 37% 30.01 in 10.0 mi SW 5.8 mph - N/A   Clear
5:55 PM 66.9 °F 55.0 °F 66% 30.01 in 10.0 mi SSW 8.1 mph - N/A   Clear
6:55 PM 63.0 °F 53.1 °F 70% 30.02 in 10.0 mi West 4.6 mph - N/A   Clear
7:55 PM 61.0 °F 54.0 °F 78% 30.01 in 10.0 mi South 3.5 mph - N/A   Clear
8:55 PM 60.1 °F 54.0 °F 80% 30.01 in 9.0 mi Calm Calm - N/A   Clear
9:55 PM 59.0 °F 53.1 °F 81% 30.01 in 9.0 mi Calm Calm - N/A   Clear
10:55 PM 57.9 °F 53.1 °F 84% 30.00 in 9.0 mi Calm Calm - N/A   Clear
11:55 PM 57.0 °F 54.0 °F 89% 30.01 in 8.0 mi SE 3.5 mph - N/A   Clear